{"data":{"norad_id":59862,"intl_designator":"2024-098E","name":"STARLINK-31584","alt_names":[],"object_type":"PAYLOAD","status":"ACTIVE","operator":null,"country":"US","launch_date":"2024-05-24","launch_site_code":"AFETR","launch_vehicle":null,"mission":null,"orbit_class":"UNKNOWN","rcs_meters":null,"size_class":null,"mass_kg":null,"dimensions":null,"purposes":["comms"],"wikipedia_slug":null,"has_3d_model":false,"image_url":null,"decayed_at":null,"tle_current":{"epoch":"2026-09-21T08:43:44.933664Z","epoch_age_seconds":99808,"freshness":"FRESH","line1":"1 59862U 24098E   26264.36371451  .00001046  00000+0  47540-4 0  9997","line2":"2 59862  43.0039 252.7937 0001305 272.4587  87.6115 15.27580354131777","mean_motion":15.27580354,"eccentricity":0.0001305,"inclination_deg":43.0039,"raan_deg":252.7937,"arg_perigee_deg":272.4587,"mean_anomaly_deg":87.6115,"bstar":4.754e-5,"rev_number":13177,"period_min":94.266726868366,"perigee_km":482.1526513893,"apogee_km":483.94342068371,"semimajor_km":6861.1850360365,"source":"CELESTRAK","updated_at":"2026-09-22T09:00:49.100913Z"}}}